Time,TemperatureF,DewpointF,PressureIn,WindDirection,WindDirectionDegrees,WindSpeedMPH,WindSpeedGustMPH,Humidity,HourlyPrecipIn,Conditions,Clouds,dailyrainin,SoftwareType,DateUTC
2013-05-06 00:02:00,46.0,41.0,-100.00,SE,138,8.0,11.0,82,0.00,,,0.00,,2013-05-06 04:02:00,
2013-05-06 00:12:00,46.0,41.0,-100.00,SE,138,8.0,11.0,82,0.00,,,0.00,,2013-05-06 04:12:00,
2013-05-06 00:23:00,46.0,41.0,-100.00,SE,138,9.0,12.0,83,0.00,,,0.00,,2013-05-06 04:23:00,
2013-05-06 00:32:00,46.0,42.0,-100.00,SE,140,8.0,12.0,83,0.00,,,0.00,,2013-05-06 04:32:00,
2013-05-06 00:43:00,46.0,42.0,-100.00,SE,140,8.0,12.0,83,0.00,,,0.00,,2013-05-06 04:43:00,
2013-05-06 00:53:00,46.0,42.0,-100.00,SE,140,7.0,11.0,85,0.00,,,0.00,,2013-05-06 04:53:00,
2013-05-06 01:02:00,46.0,42.0,-100.00,SE,136,8.0,12.0,85,0.00,,,0.00,,2013-05-06 05:02:00,
2013-05-06 01:12:00,46.0,42.0,-100.00,SE,136,8.0,12.0,85,0.00,,,0.00,,2013-05-06 05:12:00,
2013-05-06 01:22:00,44.0,41.0,-100.00,SE,143,7.0,10.0,90,0.00,,,0.00,,2013-05-06 05:22:00,
2013-05-06 01:32:00,46.0,41.0,-100.00,SE,136,10.0,13.0,84,0.00,,,0.00,,2013-05-06 05:32:00,
2013-05-06 01:42:00,46.0,41.0,-100.00,SE,136,10.0,13.0,84,0.00,,,0.00,,2013-05-06 05:42:00,
2013-05-06 01:52:00,46.0,42.0,-100.00,SE,136,9.0,13.0,87,0.00,,,0.00,,2013-05-06 05:52:00,
2013-05-06 02:02:00,45.0,42.0,-100.00,SE,144,9.0,11.0,91,0.00,,,0.00,,2013-05-06 06:02:00,
2013-05-06 02:12:00,45.0,42.0,-100.00,SE,144,9.0,11.0,91,0.00,,,0.00,,2013-05-06 06:12:00,
2013-05-06 02:22:00,45.0,42.0,-100.00,SE,140,9.0,11.0,89,0.00,,,0.00,,2013-05-06 06:22:00,
2013-05-06 02:32:00,46.0,43.0,-100.00,SE,144,8.0,10.0,89,0.00,,,0.00,,2013-05-06 06:32:00,
2013-05-06 02:42:00,46.0,43.0,-100.00,SE,144,8.0,10.0,89,0.00,,,0.00,,2013-05-06 06:42:00,
2013-05-06 02:52:00,47.0,43.0,-100.00,SE,137,9.0,12.0,88,0.00,,,0.00,,2013-05-06 06:52:00,
2013-05-06 03:01:00,46.0,43.0,-100.00,SE,144,9.0,12.0,90,0.00,,,0.00,,2013-05-06 07:01:00,
2013-05-06 03:11:00,46.0,43.0,-100.00,SE,144,9.0,12.0,90,0.00,,,0.00,,2013-05-06 07:11:00,
2013-05-06 03:22:00,46.0,43.0,-100.00,SE,144,9.0,12.0,90,0.00,,,0.00,,2013-05-06 07:22:00,
2013-05-06 03:32:00,47.0,44.0,-100.00,SSE,151,9.0,16.0,90,0.00,,,0.00,,2013-05-06 07:32:00,
2013-05-06 03:42:00,47.0,44.0,-100.00,SSE,151,9.0,16.0,90,0.00,,,0.00,,2013-05-06 07:42:00,
2013-05-06 03:52:00,47.0,44.0,-100.00,SSE,147,11.0,16.0,88,0.00,,,0.00,,2013-05-06 07:52:00,
2013-05-06 04:02:00,48.0,45.0,-100.00,SE,145,8.0,12.0,88,0.00,,,0.00,,2013-05-06 08:02:00,
2013-05-06 04:12:00,48.0,45.0,-100.00,SE,145,8.0,12.0,88,0.00,,,0.00,,2013-05-06 08:12:00,
2013-05-06 04:22:00,47.0,44.0,-100.00,SSE,157,7.0,11.0,91,0.00,,,0.00,,2013-05-06 08:22:00,
2013-05-06 04:32:00,47.0,44.0,-100.00,SSE,168,6.0,11.0,91,0.00,,,0.00,,2013-05-06 08:32:00,
2013-05-06 04:42:00,47.0,44.0,-100.00,SSE,168,6.0,11.0,91,0.00,,,0.00,,2013-05-06 08:42:00,
2013-05-06 04:52:00,47.0,44.0,-100.00,SSE,167,6.0,10.0,91,0.00,,,0.00,,2013-05-06 08:52:00,
2013-05-06 05:02:00,46.0,45.0,-100.00,SSE,148,1.0,5.0,90,0.00,,,0.00,,2013-05-06 09:02:00,
2013-05-06 05:11:00,46.0,45.0,-100.00,SSE,148,1.0,5.0,90,0.00,,,0.00,,2013-05-06 09:11:00,
2013-05-06 05:22:00,46.0,45.0,-100.00,SSE,148,1.0,5.0,90,0.00,,,0.00,,2013-05-06 09:22:00,
2013-05-06 05:33:00,47.0,45.0,-100.00,SSE,158,1.0,4.0,91,0.00,,,0.00,,2013-05-06 09:33:00,
2013-05-06 05:43:00,47.0,45.0,-100.00,SSE,158,1.0,4.0,91,0.00,,,0.00,,2013-05-06 09:43:00,
2013-05-06 05:53:00,47.0,44.0,-100.00,SE,131,1.0,5.0,89,0.00,,,0.00,,2013-05-06 09:53:00,
2013-05-06 06:03:00,47.0,44.0,-100.00,SSE,160,4.0,6.0,88,0.00,,,0.00,,2013-05-06 10:03:00,
2013-05-06 06:12:00,47.0,44.0,-100.00,SSE,160,4.0,6.0,88,0.00,,,0.00,,2013-05-06 10:12:00,
2013-05-06 06:22:00,47.0,43.0,-100.00,SSE,165,3.0,8.0,87,0.00,,,0.00,,2013-05-06 10:22:00,
2013-05-06 06:33:00,47.0,44.0,-100.00,South,174,3.0,7.0,88,0.00,,,0.00,,2013-05-06 10:33:00,
2013-05-06 06:42:00,47.0,44.0,-100.00,South,174,3.0,7.0,88,0.00,,,0.00,,2013-05-06 10:42:00,
2013-05-06 06:52:00,47.0,44.0,-100.00,SSE,164,1.0,3.0,88,0.00,,,0.00,,2013-05-06 10:52:00,
2013-05-06 07:00:00,47.0,44.0,-100.00,NW,320,0.0,4.0,90,0.00,,,0.00,,2013-05-06 11:00:00,
2013-05-06 07:02:00,47.0,44.0,-100.00,NW,326,1.0,4.0,89,0.00,,,0.00,,2013-05-06 11:02:00,
2013-05-06 07:12:00,47.0,44.0,-100.00,NW,326,1.0,4.0,89,0.00,,,0.00,,2013-05-06 11:12:00,
2013-05-06 07:22:00,47.0,44.0,-100.00,NW,320,0.0,4.0,90,0.00,,,0.00,,2013-05-06 11:22:00,
2013-05-06 07:32:00,47.0,44.0,-100.00,NW,320,0.0,4.0,90,0.00,,,0.00,,2013-05-06 11:32:00,
2013-05-06 07:42:00,47.0,44.0,-100.00,NW,320,0.0,4.0,90,0.00,,,0.00,,2013-05-06 11:42:00,
2013-05-06 07:52:00,47.0,44.0,-100.00,NW,320,0.0,4.0,90,0.00,,,0.00,,2013-05-06 11:52:00,
2013-05-06 09:32:00,47.0,45.0,-100.00,SSE,158,6.0,9.0,92,0.00,,,0.00,,2013-05-06 13:32:00,
2013-05-06 09:42:00,47.0,45.0,-100.00,SSE,158,6.0,9.0,92,0.00,,,0.00,,2013-05-06 13:42:00,
2013-05-06 09:52:00,47.0,45.0,-100.00,SSE,160,6.0,9.0,95,0.00,,,0.00,,2013-05-06 13:52:00,
2013-05-06 10:01:00,47.0,45.0,-100.00,SSE,160,6.0,9.0,95,0.00,,,0.00,,2013-05-06 14:01:00,
2013-05-06 10:11:00,47.0,45.0,-100.00,SSE,160,6.0,9.0,95,0.00,,,0.00,,2013-05-06 14:11:00,
2013-05-06 10:21:00,47.0,46.0,-100.00,SSE,162,4.0,8.0,96,0.00,,,0.00,,2013-05-06 14:21:00,
2013-05-06 10:32:00,48.0,46.0,-100.00,SSE,155,3.0,6.0,94,0.00,,,0.00,,2013-05-06 14:32:00,
2013-05-06 10:42:00,48.0,46.0,-100.00,SSE,155,3.0,6.0,94,0.00,,,0.00,,2013-05-06 14:42:00,
2013-05-06 10:52:00,49.0,47.0,-100.00,SSE,158,6.0,9.0,92,0.00,,,0.00,,2013-05-06 14:52:00,
2013-05-06 11:01:00,49.0,47.0,-100.00,SSE,167,7.0,10.0,93,0.00,,,0.00,,2013-05-06 15:01:00,
2013-05-06 11:11:00,49.0,47.0,-100.00,SSE,167,7.0,10.0,93,0.00,,,0.00,,2013-05-06 15:11:00,
2013-05-06 11:21:00,49.0,48.0,-100.00,SSE,162,6.0,10.0,94,0.00,,,0.00,,2013-05-06 15:21:00,
2013-05-06 11:33:00,48.0,46.0,-100.00,SSE,162,5.0,9.0,94,0.00,,,0.00,,2013-05-06 15:33:00,
2013-05-06 11:42:00,48.0,46.0,-100.00,SSE,162,5.0,9.0,94,0.00,,,0.00,,2013-05-06 15:42:00,
2013-05-06 11:53:00,50.0,48.0,-100.00,SSE,162,6.0,11.0,92,0.00,,,0.00,,2013-05-06 15:53:00,
2013-05-06 12:03:00,50.0,48.0,-100.00,SSE,157,7.0,13.0,92,0.00,,,0.00,,2013-05-06 16:03:00,
2013-05-06 12:13:00,50.0,48.0,-100.00,SSE,157,7.0,13.0,92,0.00,,,0.00,,2013-05-06 16:13:00,
2013-05-06 12:23:00,49.0,48.0,-100.00,SSE,165,7.0,15.0,94,0.00,,,0.02,,2013-05-06 16:23:00,
2013-05-06 12:33:00,50.0,48.0,-100.00,SSE,160,7.0,13.0,94,0.00,,,0.02,,2013-05-06 16:33:00,
2013-05-06 12:42:00,50.0,48.0,-100.00,SSE,160,7.0,13.0,94,0.00,,,0.02,,2013-05-06 16:42:00,
2013-05-06 12:52:00,51.0,49.0,-100.00,SSE,165,6.0,11.0,93,0.00,,,0.02,,2013-05-06 16:52:00,
2013-05-06 13:03:00,51.0,49.0,-100.00,South,172,6.0,9.0,90,0.00,,,0.02,,2013-05-06 17:03:00,
2013-05-06 13:12:00,51.0,49.0,-100.00,South,172,6.0,9.0,90,0.00,,,0.02,,2013-05-06 17:12:00,
2013-05-06 13:23:00,52.0,49.0,-100.00,SSE,154,7.0,11.0,90,0.00,,,0.02,,2013-05-06 17:23:00,
2013-05-06 13:32:00,52.0,50.0,-100.00,SSE,161,6.0,11.0,92,0.00,,,0.02,,2013-05-06 17:32:00,
2013-05-06 13:42:00,52.0,50.0,-100.00,SSE,161,6.0,11.0,92,0.00,,,0.02,,2013-05-06 17:42:00,
2013-05-06 13:52:00,52.0,50.0,-100.00,SSE,168,6.0,11.0,91,0.00,,,0.02,,2013-05-06 17:52:00,
2013-05-06 14:01:00,52.0,51.0,-100.00,SSE,165,6.0,11.0,94,0.03,,,0.04,,2013-05-06 18:01:00,
2013-05-06 14:12:00,52.0,51.0,-100.00,SSE,165,6.0,11.0,94,0.03,,,0.04,,2013-05-06 18:12:00,
2013-05-06 14:22:00,53.0,51.0,-100.00,SSE,161,6.0,12.0,94,0.00,,,0.05,,2013-05-06 18:22:00,
2013-05-06 14:32:00,52.0,51.0,-100.00,SSE,164,6.0,11.0,95,0.00,,,0.05,,2013-05-06 18:32:00,
2013-05-06 14:43:00,52.0,51.0,-100.00,SSE,164,6.0,11.0,95,0.00,,,0.05,,2013-05-06 18:43:00,
2013-05-06 14:52:00,53.0,51.0,-100.00,SSE,161,5.0,10.0,96,0.00,,,0.05,,2013-05-06 18:52:00,
2013-05-06 15:01:00,53.0,52.0,-100.00,SSE,168,6.0,11.0,96,0.01,,,0.07,,2013-05-06 19:01:00,
2013-05-06 15:11:00,53.0,52.0,-100.00,SSE,168,6.0,11.0,96,0.01,,,0.07,,2013-05-06 19:11:00,
2013-05-06 15:22:00,53.0,52.0,-100.00,SSE,155,4.0,8.0,97,0.00,,,0.08,,2013-05-06 19:22:00,
2013-05-06 15:32:00,53.0,52.0,-100.00,SSE,161,4.0,9.0,97,0.00,,,0.08,,2013-05-06 19:32:00,
2013-05-06 15:42:00,53.0,52.0,-100.00,SSE,161,4.0,9.0,97,0.00,,,0.08,,2013-05-06 19:42:00,
2013-05-06 15:52:00,53.0,53.0,-100.00,SSE,151,6.0,11.0,97,0.24,,,0.11,,2013-05-06 19:52:00,
2013-05-06 16:02:00,54.0,53.0,-100.00,SSE,155,6.0,9.0,97,0.00,,,0.13,,2013-05-06 20:02:00,
2013-05-06 16:11:00,54.0,53.0,-100.00,SSE,155,6.0,9.0,97,0.00,,,0.13,,2013-05-06 20:11:00,
2013-05-06 16:21:00,54.0,53.0,-100.00,SSE,155,6.0,11.0,97,0.24,,,0.16,,2013-05-06 20:21:00,
2013-05-06 16:32:00,54.0,53.0,-100.00,South,169,5.0,9.0,97,0.00,,,0.16,,2013-05-06 20:32:00,
2013-05-06 16:42:00,54.0,53.0,-100.00,South,169,5.0,9.0,97,0.00,,,0.16,,2013-05-06 20:42:00,
2013-05-06 16:52:00,55.0,54.0,-100.00,SSE,160,3.0,8.0,97,0.00,,,0.16,,2013-05-06 20:52:00,
2013-05-06 17:01:00,54.0,54.0,-100.00,SSE,165,4.0,9.0,97,0.64,,,0.19,,2013-05-06 21:01:00,
2013-05-06 17:11:00,54.0,54.0,-100.00,SSE,165,4.0,9.0,97,0.64,,,0.19,,2013-05-06 21:11:00,
2013-05-06 17:21:00,55.0,54.0,-100.00,SSE,168,4.0,8.0,96,0.11,,,0.23,,2013-05-06 21:21:00,
2013-05-06 17:33:00,55.0,54.0,-100.00,SSE,148,4.0,9.0,97,0.00,,,0.24,,2013-05-06 21:33:00,
2013-05-06 17:43:00,55.0,54.0,-100.00,SSE,148,4.0,9.0,97,0.00,,,0.24,,2013-05-06 21:43:00,
2013-05-06 17:53:00,55.0,54.0,-100.00,SSE,161,5.0,10.0,97,0.00,,,0.24,,2013-05-06 21:53:00,
2013-05-06 18:03:00,55.0,54.0,-100.00,SSE,168,8.0,15.0,96,0.44,,,0.24,,2013-05-06 22:03:00,
2013-05-06 18:12:00,55.0,54.0,-100.00,SSE,168,8.0,15.0,96,0.44,,,0.24,,2013-05-06 22:12:00,
2013-05-06 18:22:00,56.0,55.0,-100.00,SSE,162,8.0,14.0,96,0.00,,,0.25,,2013-05-06 22:22:00,
2013-05-06 18:33:00,56.0,55.0,-100.00,SSE,162,9.0,16.0,96,0.00,,,0.25,,2013-05-06 22:33:00,
2013-05-06 18:45:00,56.0,55.0,-100.00,SSE,162,9.0,16.0,96,0.00,,,0.25,,2013-05-06 22:45:00,
2013-05-06 18:52:00,56.0,55.0,-100.00,SSE,162,7.0,12.0,96,0.00,,,0.25,,2013-05-06 22:52:00,
2013-05-06 19:03:00,56.0,55.0,-100.00,SSE,161,8.0,13.0,96,0.04,,,0.30,,2013-05-06 23:03:00,
2013-05-06 19:12:00,56.0,55.0,-100.00,SSE,161,8.0,13.0,96,0.04,,,0.30,,2013-05-06 23:12:00,
2013-05-06 19:22:00,56.0,55.0,-100.00,SSE,162,7.0,13.0,96,0.00,,,0.30,,2013-05-06 23:22:00,
2013-05-06 19:32:00,56.0,55.0,-100.00,SSE,164,8.0,13.0,96,0.00,,,0.30,,2013-05-06 23:32:00,
2013-05-06 19:42:00,56.0,55.0,-100.00,SSE,164,8.0,13.0,96,0.00,,,0.30,,2013-05-06 23:42:00,
2013-05-06 19:52:00,56.0,55.0,-100.00,SSE,160,8.0,12.0,96,0.00,,,0.30,,2013-05-06 23:52:00,
2013-05-06 20:01:00,56.0,55.0,-100.00,SSE,152,7.0,12.0,97,0.00,,,0.30,,2013-05-07 00:01:00,
2013-05-06 20:12:00,56.0,55.0,-100.00,SSE,152,7.0,12.0,97,0.00,,,0.30,,2013-05-07 00:12:00,
2013-05-06 20:22:00,56.0,56.0,-100.00,SSE,152,9.0,14.0,98,0.00,,,0.30,,2013-05-07 00:22:00,
2013-05-06 20:32:00,56.0,56.0,-100.00,SSE,154,8.0,13.0,98,0.00,,,0.30,,2013-05-07 00:32:00,
2013-05-06 20:42:00,56.0,56.0,-100.00,SSE,154,8.0,13.0,98,0.00,,,0.30,,2013-05-07 00:42:00,
2013-05-06 20:52:00,56.0,56.0,-100.00,SSE,152,9.0,17.0,98,0.00,,,0.30,,2013-05-07 00:52:00,
2013-05-06 21:01:00,56.0,55.0,-100.00,SSE,151,10.0,16.0,98,0.00,,,0.30,,2013-05-07 01:01:00,
2013-05-06 21:11:00,56.0,55.0,-100.00,SSE,151,10.0,16.0,98,0.00,,,0.30,,2013-05-07 01:11:00,
2013-05-06 21:21:00,56.0,56.0,-100.00,SSE,157,8.0,15.0,98,0.00,,,0.30,,2013-05-07 01:21:00,
2013-05-06 21:32:00,57.0,57.0,-100.00,SSE,157,9.0,15.0,98,0.00,,,0.30,,2013-05-07 01:32:00,
2013-05-06 21:42:00,57.0,57.0,-100.00,SSE,157,9.0,15.0,98,0.00,,,0.30,,2013-05-07 01:42:00,
2013-05-06 21:53:00,56.0,56.0,-100.00,SSE,152,8.0,14.0,98,0.00,,,0.30,,2013-05-07 01:53:00,
2013-05-06 22:02:00,56.0,56.0,-100.00,SSE,157,10.0,17.0,98,0.00,,,0.30,,2013-05-07 02:02:00,
2013-05-06 22:11:00,56.0,56.0,-100.00,SSE,157,10.0,17.0,98,0.00,,,0.30,,2013-05-07 02:11:00,
2013-05-06 22:22:00,56.0,56.0,-100.00,SSE,151,10.0,16.0,98,0.00,,,0.30,,2013-05-07 02:22:00,
2013-05-06 22:32:00,56.0,56.0,-100.00,SSE,151,10.0,15.0,98,0.00,,,0.30,,2013-05-07 02:32:00,
2013-05-06 22:42:00,56.0,56.0,-100.00,SSE,151,10.0,15.0,98,0.00,,,0.30,,2013-05-07 02:42:00,
2013-05-06 22:52:00,56.0,56.0,-100.00,SSE,150,10.0,17.0,98,0.51,,,0.31,,2013-05-07 02:52:00,
2013-05-06 23:02:00,56.0,56.0,-100.00,SSE,150,10.0,17.0,98,0.00,,,0.31,,2013-05-07 03:02:00,
2013-05-06 23:12:00,56.0,56.0,-100.00,SSE,150,10.0,17.0,98,0.00,,,0.31,,2013-05-07 03:12:00,
2013-05-06 23:22:00,56.0,56.0,-100.00,SSE,151,11.0,15.0,99,0.00,,,0.31,,2013-05-07 03:22:00,
2013-05-06 23:32:00,56.0,56.0,-100.00,SSE,148,11.0,19.0,99,0.00,,,0.31,,2013-05-07 03:32:00,
2013-05-06 23:43:00,56.0,56.0,-100.00,SSE,148,11.0,19.0,99,0.00,,,0.31,,2013-05-07 03:43:00,